CFC2622 EHEH-EGVN

Flight info

Callsign CFC2622
Flight time 0h 57m
Altitude 20000
Route ABNED L980 LAM L179 ICTAM Q63 ASHUM DCT BZN
Aircraft C30J/M-SBDE2FGHIJ4J5M1RTUWXYZ/HB2

Departure

Time 2026-04-22 14:54
Airport Eindhoven Airport (EHEH)

Arrival

Time 2026-04-22 15:51
Airport RAF Brize Norton (EGVN)
Time Latitude Longitude Altitude Speed Heading
2026-04-22 14:17 51.45166 5.38260 67 ft 0 kts 215°
2026-04-22 14:46 51.45163 5.38235 66 ft 1 kts 283°
2026-04-22 14:46 51.45177 5.38224 69 ft 4 kts 340°
2026-04-22 14:46 51.45214 5.38210 72 ft 4 kts 344°
2026-04-22 14:47 51.45228 5.38200 65 ft 0 kts 332°
2026-04-22 14:47 51.45255 5.38159 70 ft 11 kts 313°
2026-04-22 14:47 51.45285 5.38094 74 ft 8 kts 306°
2026-04-22 14:47 51.45315 5.38027 70 ft 4 kts 304°
2026-04-22 14:48 51.45338 5.37974 70 ft 13 kts 305°
2026-04-22 14:48 51.45387 5.37861 70 ft 8 kts 306°
2026-04-22 14:48 51.45421 5.37785 80 ft 2 kts 305°
2026-04-22 14:48 51.45453 5.37687 72 ft 5 kts 260°
2026-04-22 14:49 51.45383 5.37588 70 ft 21 kts 215°
2026-04-22 14:49 51.45295 5.37485 74 ft 9 kts 213°
2026-04-22 14:49 51.45238 5.37424 73 ft 15 kts 215°
2026-04-22 14:49 51.45135 5.37308 69 ft 17 kts 214°
2026-04-22 14:50 51.45074 5.37238 74 ft 8 kts 216°
2026-04-22 14:50 51.44999 5.37156 81 ft 18 kts 215°
2026-04-22 14:50 51.44921 5.37069 81 ft 21 kts 214°
2026-04-22 14:50 51.44802 5.36934 84 ft 12 kts 216°
2026-04-22 14:51 51.44692 5.36811 80 ft 28 kts 215°
2026-04-22 14:51 51.44574 5.36670 69 ft 6 kts 217°
2026-04-22 14:51 51.44520 5.36612 70 ft 18 kts 214°
2026-04-22 14:51 51.44432 5.36514 69 ft 12 kts 216°
2026-04-22 14:52 51.44353 5.36424 71 ft 30 kts 213°
2026-04-22 14:52 51.44180 5.36237 84 ft 23 kts 215°
2026-04-22 14:52 51.44071 5.36118 71 ft 16 kts 212°
2026-04-22 14:52 51.44001 5.36091 78 ft 12 kts 169°
2026-04-22 14:53 51.43962 5.36142 73 ft 13 kts 124°
2026-04-22 14:53 51.43965 5.36271 73 ft 12 kts 51°
2026-04-22 14:53 51.44037 5.36359 84 ft 42 kts 36°
2026-04-22 14:53 51.44505 5.36900 87 ft 119 kts 34°
2026-04-22 14:54 51.45353 5.37817 132 ft 173 kts 36°
2026-04-22 14:54 51.46406 5.38959 687 ft 184 kts 34°
2026-04-22 14:54 51.47531 5.40111 1236 ft 201 kts 33°
2026-04-22 14:54 51.48718 5.41403 1824 ft 211 kts 37°
2026-04-22 14:55 51.49935 5.42802 2407 ft 220 kts 37°
2026-04-22 14:55 51.51221 5.44189 2989 ft 226 kts 29°
2026-04-22 14:55 51.52775 5.44726 3629 ft 236 kts
2026-04-22 14:55 51.54347 5.43837 4234 ft 250 kts 326°
2026-04-22 14:56 51.55384 5.41567 4812 ft 261 kts 290°
2026-04-22 14:56 51.55479 5.38666 5395 ft 264 kts 254°
2026-04-22 14:56 51.54829 5.35949 6006 ft 266 kts 255°
2026-04-22 14:56 51.54808 5.33016 6619 ft 269 kts 280°
2026-04-22 14:57 51.55252 5.30080 7263 ft 271 kts 285°
2026-04-22 14:57 51.55747 5.27151 7872 ft 272 kts 285°
2026-04-22 14:57 51.56223 5.24197 8511 ft 273 kts 284°
2026-04-22 14:57 51.56684 5.21228 9151 ft 274 kts 284°
2026-04-22 14:58 51.57137 5.18247 9799 ft 276 kts 284°
2026-04-22 14:58 51.57587 5.15244 10452 ft 277 kts 284°
2026-04-22 14:58 51.58035 5.12224 11051 ft 278 kts 284°
2026-04-22 14:58 51.58482 5.09199 11658 ft 278 kts 284°
2026-04-22 14:59 51.58927 5.06170 12270 ft 278 kts 284°
2026-04-22 14:59 51.59371 5.03148 12893 ft 278 kts 285°
2026-04-22 14:59 51.59813 5.00127 13517 ft 278 kts 285°
2026-04-22 14:59 51.60255 4.97102 14144 ft 277 kts 285°
2026-04-22 15:00 51.60695 4.94080 14689 ft 277 kts 285°
2026-04-22 15:00 51.61129 4.91095 15227 ft 277 kts 286°
2026-04-22 15:00 51.61568 4.88071 15760 ft 277 kts 286°
2026-04-22 15:00 51.62006 4.85043 16289 ft 278 kts 286°
2026-04-22 15:01 51.62444 4.82016 16817 ft 278 kts 286°
2026-04-22 15:01 51.62882 4.78986 17345 ft 278 kts 286°
2026-04-22 15:01 51.63319 4.75952 17871 ft 278 kts 286°
2026-04-22 15:01 51.63755 4.72914 18392 ft 279 kts 286°
2026-04-22 15:02 51.64191 4.69875 18876 ft 279 kts 286°
2026-04-22 15:02 51.64625 4.66836 19317 ft 279 kts 286°
2026-04-22 15:02 51.65060 4.63794 19770 ft 278 kts 286°
2026-04-22 15:02 51.65486 4.60800 20205 ft 279 kts 286°
2026-04-22 15:03 51.65933 4.57672 20335 ft 292 kts 286°
2026-04-22 15:03 51.66398 4.54414 20361 ft 307 kts 286°
2026-04-22 15:03 51.66884 4.50988 20354 ft 320 kts 285°
2026-04-22 15:03 51.67387 4.47423 20348 ft 331 kts 285°
2026-04-22 15:04 51.67903 4.43754 20344 ft 340 kts 285°
2026-04-22 15:04 51.68430 4.39995 20344 ft 347 kts 285°
2026-04-22 15:04 51.68966 4.36166 20345 ft 353 kts 285°
2026-04-22 15:04 51.69509 4.32280 20345 ft 357 kts 285°
2026-04-22 15:05 51.70051 4.28400 20346 ft 361 kts 285°
2026-04-22 15:05 51.70603 4.24434 20344 ft 364 kts 285°
2026-04-22 15:05 51.71158 4.20435 20346 ft 366 kts 285°
2026-04-22 15:05 51.71714 4.16414 20346 ft 368 kts 285°
2026-04-22 15:06 51.72271 4.12377 20353 ft 370 kts 285°
2026-04-22 15:06 51.72828 4.08327 20354 ft 371 kts 285°
2026-04-22 15:06 51.73387 4.04257 20353 ft 372 kts 285°
2026-04-22 15:06 51.73946 4.00180 20352 ft 372 kts 285°
2026-04-22 15:07 51.74503 3.96101 20355 ft 373 kts 285°
2026-04-22 15:07 51.75060 3.92011 20359 ft 373 kts 285°
2026-04-22 15:07 51.75615 3.87921 20340 ft 373 kts 284°
2026-04-22 15:07 51.76168 3.83836 20356 ft 373 kts 284°
2026-04-22 15:08 51.76722 3.79739 20361 ft 373 kts 284°
2026-04-22 15:08 51.77273 3.75647 20356 ft 373 kts 284°
2026-04-22 15:08 51.77823 3.71548 20358 ft 373 kts 284°
2026-04-22 15:08 51.78372 3.67449 20361 ft 374 kts 284°
2026-04-22 15:09 51.78920 3.63342 20362 ft 374 kts 284°
2026-04-22 15:09 51.79460 3.59283 20359 ft 374 kts 284°
2026-04-22 15:09 51.80006 3.55174 20358 ft 374 kts 284°
2026-04-22 15:09 51.80543 3.51116 20360 ft 374 kts 284°
2026-04-22 15:10 51.81085 3.47010 20363 ft 374 kts 284°
2026-04-22 15:10 51.81625 3.42906 20366 ft 374 kts 284°
2026-04-22 15:10 51.82164 3.38795 20357 ft 374 kts 283°
2026-04-22 15:10 51.82704 3.34671 20367 ft 374 kts 283°
2026-04-22 15:11 51.83241 3.30555 20373 ft 374 kts 283°
2026-04-22 15:11 51.83776 3.26435 20370 ft 374 kts 283°
2026-04-22 15:11 51.84296 3.22311 20366 ft 375 kts 280°
2026-04-22 15:11 51.84526 3.18103 20369 ft 376 kts 272°
2026-04-22 15:12 51.84512 3.13876 20371 ft 376 kts 267°
2026-04-22 15:12 51.84317 3.09650 20371 ft 377 kts 265°
2026-04-22 15:12 51.84079 3.05440 20371 ft 376 kts 265°
2026-04-22 15:12 51.83823 3.01230 20370 ft 376 kts 264°
2026-04-22 15:13 51.83558 2.97013 20369 ft 376 kts 264°
2026-04-22 15:13 51.83288 2.92803 20370 ft 377 kts 264°
2026-04-22 15:13 51.83015 2.88599 20372 ft 376 kts 263°
2026-04-22 15:13 51.82739 2.84387 20376 ft 376 kts 263°
2026-04-22 15:14 51.82467 2.80246 20373 ft 375 kts 263°
2026-04-22 15:14 51.82189 2.76050 20373 ft 376 kts 263°
2026-04-22 15:14 51.81909 2.71850 20374 ft 375 kts 263°
2026-04-22 15:14 51.81627 2.67655 20376 ft 375 kts 263°
2026-04-22 15:15 51.81336 2.63461 20375 ft 375 kts 263°
2026-04-22 15:15 51.81041 2.59300 20376 ft 374 kts 263°
2026-04-22 15:15 51.80751 2.55124 20370 ft 375 kts 263°
2026-04-22 15:15 51.80461 2.50933 20374 ft 374 kts 263°
2026-04-22 15:16 51.80171 2.46752 20376 ft 373 kts 263°
2026-04-22 15:16 51.79881 2.42591 20370 ft 373 kts 263°
2026-04-22 15:16 51.79590 2.38426 20375 ft 372 kts 262°
2026-04-22 15:16 51.79298 2.34278 20371 ft 372 kts 262°
2026-04-22 15:17 51.79005 2.30130 20379 ft 371 kts 262°
2026-04-22 15:17 51.78710 2.25984 20379 ft 371 kts 263°
2026-04-22 15:17 51.78416 2.21851 20370 ft 371 kts 263°
2026-04-22 15:17 51.78161 2.17699 20369 ft 370 kts 264°
2026-04-22 15:18 51.77921 2.13552 20369 ft 372 kts 264°
2026-04-22 15:18 51.77682 2.09456 20372 ft 371 kts 263°
2026-04-22 15:18 51.77440 2.05304 20372 ft 371 kts 264°
2026-04-22 15:18 51.77196 2.01160 20366 ft 371 kts 263°
2026-04-22 15:19 51.76957 1.97113 20369 ft 371 kts 264°
2026-04-22 15:19 51.76710 1.92947 20376 ft 372 kts 263°
2026-04-22 15:19 51.76461 1.88803 20377 ft 370 kts 263°
2026-04-22 15:19 51.76212 1.84674 20378 ft 368 kts 263°
2026-04-22 15:20 51.76044 1.81899 20375 ft 368 kts 263°
2026-04-22 15:20 51.75711 1.76448 20376 ft 367 kts 263°
2026-04-22 15:20 51.75459 1.72344 20379 ft 369 kts 263°
2026-04-22 15:20 51.75205 1.68230 20382 ft 368 kts 263°
2026-04-22 15:21 51.74949 1.64115 20382 ft 368 kts 263°
2026-04-22 15:21 51.74695 1.60087 20380 ft 368 kts 263°
2026-04-22 15:21 51.74435 1.56196 20384 ft 368 kts 263°
2026-04-22 15:21 51.74165 1.52085 20376 ft 369 kts 263°
2026-04-22 15:22 51.73898 1.47969 20374 ft 368 kts 263°
2026-04-22 15:22 51.73634 1.43857 20374 ft 368 kts 264°
2026-04-22 15:22 51.73368 1.39767 20372 ft 367 kts 263°
2026-04-22 15:22 51.73100 1.35680 20373 ft 366 kts 263°
2026-04-22 15:23 51.72833 1.31585 20369 ft 368 kts 263°
2026-04-22 15:23 51.72565 1.27491 20374 ft 367 kts 264°
2026-04-22 15:23 51.72296 1.23404 20375 ft 366 kts 264°
2026-04-22 15:23 51.72027 1.19319 20373 ft 365 kts 263°
2026-04-22 15:24 51.71756 1.15246 20365 ft 365 kts 263°
2026-04-22 15:24 51.71484 1.11164 20362 ft 367 kts 263°
2026-04-22 15:24 51.71209 1.07080 20364 ft 366 kts 263°
2026-04-22 15:24 51.70924 1.02989 20365 ft 365 kts 263°
2026-04-22 15:25 51.70642 0.98922 20360 ft 366 kts 263°
2026-04-22 15:25 51.70363 0.94849 20356 ft 365 kts 265°
2026-04-22 15:25 51.70081 0.90785 20360 ft 365 kts 265°
2026-04-22 15:25 51.69798 0.86719 20354 ft 364 kts 265°
2026-04-22 15:26 51.69519 0.82712 20354 ft 364 kts 264°
2026-04-22 15:26 51.69235 0.78663 20352 ft 363 kts 265°
2026-04-22 15:26 51.68949 0.74619 20355 ft 363 kts 264°
2026-04-22 15:26 51.68663 0.70571 20354 ft 364 kts 265°
2026-04-22 15:27 51.68375 0.66514 20357 ft 363 kts 264°
2026-04-22 15:27 51.68086 0.62472 20358 ft 363 kts 264°
2026-04-22 15:27 51.67796 0.58435 20356 ft 363 kts 265°
2026-04-22 15:27 51.67505 0.54389 20352 ft 363 kts 265°
2026-04-22 15:28 51.67214 0.50350 20353 ft 364 kts 265°
2026-04-22 15:28 51.66919 0.46300 20352 ft 363 kts 264°
2026-04-22 15:28 51.66620 0.42263 20354 ft 362 kts 264°
2026-04-22 15:28 51.66321 0.38239 20351 ft 362 kts 264°
2026-04-22 15:29 51.66025 0.34218 20349 ft 361 kts 264°
2026-04-22 15:29 51.65727 0.30194 20351 ft 362 kts 264°
2026-04-22 15:29 51.65428 0.26169 20350 ft 362 kts 264°
2026-04-22 15:30 51.64930 0.19498 20349 ft 362 kts 264°
2026-04-22 15:30 51.64493 0.14131 20352 ft 362 kts 261°
2026-04-22 15:30 51.64062 0.10123 20351 ft 363 kts 261°
2026-04-22 15:30 51.63630 0.06125 20357 ft 362 kts 261°
2026-04-22 15:31 51.63202 0.02135 20350 ft 362 kts 261°
2026-04-22 15:31 51.62772 -0.01860 20419 ft 362 kts 261°
2026-04-22 15:31 51.62345 -0.05842 20428 ft 360 kts 261°
2026-04-22 15:31 51.61917 -0.09807 20440 ft 360 kts 261°
2026-04-22 15:32 51.61485 -0.13774 20447 ft 360 kts 261°
2026-04-22 15:32 51.61048 -0.17733 20453 ft 359 kts 261°
2026-04-22 15:32 51.60612 -0.21691 20455 ft 359 kts 261°
2026-04-22 15:32 51.60179 -0.25643 20453 ft 359 kts 261°
2026-04-22 15:33 51.59751 -0.29542 20329 ft 359 kts 261°
2026-04-22 15:33 51.59316 -0.33496 20328 ft 359 kts 261°
2026-04-22 15:33 51.58880 -0.37444 20328 ft 359 kts 261°
2026-04-22 15:33 51.58443 -0.41391 20329 ft 359 kts 261°
2026-04-22 15:34 51.58004 -0.45341 20327 ft 359 kts 261°
2026-04-22 15:34 51.57565 -0.49279 20328 ft 359 kts 261°
2026-04-22 15:34 51.57123 -0.53233 20329 ft 359 kts 261°
2026-04-22 15:34 51.56680 -0.57173 20329 ft 359 kts 261°
2026-04-22 15:35 51.56379 -0.59846 20327 ft 359 kts 262°
2026-04-22 15:35 51.55789 -0.65067 20326 ft 359 kts 262°
2026-04-22 15:35 51.55342 -0.69008 20325 ft 359 kts 262°
2026-04-22 15:35 51.54888 -0.73003 20303 ft 359 kts 261°
2026-04-22 15:36 51.54438 -0.76947 19662 ft 364 kts 261°
2026-04-22 15:36 51.53984 -0.80906 19049 ft 358 kts 260°
2026-04-22 15:36 51.53533 -0.84830 18424 ft 358 kts 259°
2026-04-22 15:36 51.53082 -0.88743 17738 ft 355 kts 259°
2026-04-22 15:37 51.52635 -0.92606 17070 ft 347 kts 258°
2026-04-22 15:37 51.52198 -0.96380 16428 ft 339 kts 258°
2026-04-22 15:37 51.51773 -1.00038 15803 ft 329 kts 257°
2026-04-22 15:37 51.51359 -1.03595 15189 ft 320 kts 257°
2026-04-22 15:38 51.50954 -1.07065 14586 ft 312 kts 256°
2026-04-22 15:38 51.50292 -1.12700 13550 ft 301 kts 257°
2026-04-22 15:38 51.49905 -1.15977 12913 ft 296 kts 255°
2026-04-22 15:39 51.49826 -1.19256 12256 ft 297 kts 280°
2026-04-22 15:39 51.50599 -1.22308 11656 ft 295 kts 297°
2026-04-22 15:39 51.51563 -1.25141 11056 ft 291 kts 296°
2026-04-22 15:39 51.52250 -1.28159 10467 ft 286 kts 283°
2026-04-22 15:40 51.52751 -1.31280 9864 ft 283 kts 282°
2026-04-22 15:40 51.53225 -1.34291 9259 ft 281 kts 282°
2026-04-22 15:40 51.53698 -1.37319 8653 ft 278 kts 282°
2026-04-22 15:40 51.54166 -1.40356 8031 ft 276 kts 282°
2026-04-22 15:41 51.54618 -1.43329 7655 ft 272 kts 282°
2026-04-22 15:41 51.55068 -1.46300 7441 ft 272 kts 282°
2026-04-22 15:41 51.55519 -1.49195 7221 ft 274 kts 282°
2026-04-22 15:41 51.55988 -1.52247 7008 ft 279 kts 282°
2026-04-22 15:42 51.56444 -1.55244 6783 ft 280 kts 282°
2026-04-22 15:42 51.56912 -1.58286 6542 ft 281 kts 282°
2026-04-22 15:42 51.57388 -1.61373 6225 ft 283 kts 282°
2026-04-22 15:42 51.57858 -1.64429 5928 ft 286 kts 282°
2026-04-22 15:43 51.58334 -1.67548 5620 ft 288 kts 282°
2026-04-22 15:43 51.58811 -1.70681 5319 ft 289 kts 282°
2026-04-22 15:43 51.59386 -1.73779 5013 ft 289 kts 288°
2026-04-22 15:43 51.60036 -1.76842 4698 ft 289 kts 288°
2026-04-22 15:44 51.60668 -1.79910 4406 ft 289 kts 289°
2026-04-22 15:44 51.61503 -1.82780 4086 ft 274 kts 303°
2026-04-22 15:44 51.62713 -1.84955 3791 ft 251 kts 325°
2026-04-22 15:44 51.64135 -1.86326 3489 ft 228 kts 342°
2026-04-22 15:45 51.65554 -1.87263 3173 ft 212 kts 349°
2026-04-22 15:45 51.66938 -1.87771 2866 ft 196 kts
2026-04-22 15:45 51.68186 -1.87849 2784 ft 162 kts 11°
2026-04-22 15:45 51.69071 -1.87380 2721 ft 110 kts 51°
2026-04-22 15:46 51.69538 -1.86473 2360 ft 115 kts 62°
2026-04-22 15:46 51.69986 -1.85248 2246 ft 138 kts 67°
2026-04-22 15:46 51.70399 -1.83807 2240 ft 140 kts 71°
2026-04-22 15:46 51.70715 -1.82385 2274 ft 131 kts 76°
2026-04-22 15:47 51.70997 -1.80972 2309 ft 134 kts 76°
2026-04-22 15:47 51.71271 -1.79505 2339 ft 139 kts 76°
2026-04-22 15:47 51.71570 -1.78028 2224 ft 136 kts 76°
2026-04-22 15:47 51.71827 -1.76591 2115 ft 127 kts 78°
2026-04-22 15:48 51.72047 -1.75267 1950 ft 119 kts 78°
2026-04-22 15:48 51.72268 -1.73912 1798 ft 133 kts 76°
2026-04-22 15:48 51.72499 -1.72443 1682 ft 136 kts 76°
2026-04-22 15:48 51.72728 -1.70995 1546 ft 129 kts 74°
2026-04-22 15:49 51.72964 -1.69647 1395 ft 122 kts 75°
2026-04-22 15:49 51.73206 -1.68363 1281 ft 120 kts 74°
2026-04-22 15:49 51.73440 -1.67090 1110 ft 119 kts 74°
2026-04-22 15:49 51.73675 -1.65767 960 ft 124 kts 74°
2026-04-22 15:50 51.73892 -1.64466 812 ft 119 kts 74°
2026-04-22 15:50 51.74109 -1.63187 640 ft 119 kts 74°
2026-04-22 15:50 51.74336 -1.61919 473 ft 115 kts 73°
2026-04-22 15:50 51.74569 -1.60688 323 ft 112 kts 75°
2026-04-22 15:51 51.74765 -1.59596 261 ft 90 kts 74°
2026-04-22 15:51 51.74895 -1.58858 263 ft 37 kts 76°
2026-04-22 15:51 51.74963 -1.58474 262 ft 32 kts 73°
2026-04-22 15:51 51.75004 -1.58236 262 ft 7 kts 79°
2026-04-22 15:52 51.74906 -1.58249 262 ft 35 kts 213°
2026-04-22 15:52 51.74739 -1.58411 262 ft 21 kts 210°
2026-04-22 15:52 51.74642 -1.58412 262 ft 9 kts 134°
2026-04-22 15:52 51.74583 -1.58261 262 ft 16 kts 116°
2026-04-22 15:53 51.74547 -1.58135 262 ft 19 kts 109°
2026-04-22 15:53 51.74554 -1.57968 262 ft 13 kts 59°
2026-04-22 15:53 51.74613 -1.57923 262 ft 6 kts 12°
2026-04-22 15:53 51.74642 -1.57913 262 ft 1 kts 37°
2026-04-22 15:54 51.74644 -1.57893 262 ft 3 kts 85°
2026-04-22 15:54 51.74635 -1.57886 262 ft 0 kts 146°